Stations météo

réclame
Mon MeteoGroup
Writtle, Grande-Bretagne (99127): Température de l'air & dewpoint: 18.01.2021 15:00:00 - 24.01.2021 15:00:00 (GMT)Writtle, Grande-Bretagne (99127): Température de l'air -20cm: 18.01.2021 15:00:00 - 24.01.2021 15:00:00 (GMT)Writtle, Grande-Bretagne (99127): Quantités de précipitations: 18.01.2021 15:00:00 - 24.01.2021 15:00:00 (GMT)
Date & Time tt [°C] td [°C] tt -20cm [°C] rr [mm]
24.01.2021 15:00:00 1,6 1,0 - 0,4
24.01.2021 14:00:00 1,5 0,8 - 1,0
24.01.2021 13:00:00 3,0 0,3 - 0,0
24.01.2021 12:00:00 2,2 0,2 - 0,2
24.01.2021 11:00:00 0,6 -0,5 - 0,0
24.01.2021 10:00:00 -0,7 -1,3 - 0,0
24.01.2021 09:00:00 -1,8 -2,3 5,9 0,0
24.01.2021 08:00:00 -2,1 -2,4 - 0,0
24.01.2021 07:00:00 -2,8 -3,1 - 0,0
24.01.2021 06:00:00 -3,4 -3,7 - 0,0
24.01.2021 05:00:00 -3,7 -4,2 - 0,0
24.01.2021 04:00:00 -3,4 -4,1 - 0,0
24.01.2021 03:00:00 -3,0 -3,8 - 0,0
24.01.2021 02:00:00 -1,4 -2,1 - 0,0
24.01.2021 01:00:00 -1,7 -2,3 - 0,0
24.01.2021 00:00:00 -1,6 -2,1 - 0,0
23.01.2021 23:00:00 -1,9 -2,2 - 0,0
23.01.2021 22:00:00 -1,9 -2,5 - 0,0
23.01.2021 21:00:00 -0,7 -1,6 - 0,0
23.01.2021 20:00:00 0,6 -0,6 - 0,0
23.01.2021 19:00:00 0,3 -0,8 - 0,0
23.01.2021 18:00:00 0,6 -0,8 - 0,0
23.01.2021 17:00:00 0,9 -1,5 - 0,0
23.01.2021 16:00:00 2,8 -1,0 - 0,0
23.01.2021 15:00:00 3,1 0,5 - 0,0
23.01.2021 14:00:00 2,9 0,9 - 0,0
23.01.2021 13:00:00 2,1 0,7 - 0,0
23.01.2021 12:00:00 1,3 0,1 - 0,0
23.01.2021 11:00:00 0,9 0,0 - 0,0
23.01.2021 10:00:00 0,5 -0,4 - 0,0
23.01.2021 09:00:00 0,7 -0,1 6,2 0,0
23.01.2021 08:00:00 0,6 -0,5 - 0,0
23.01.2021 07:00:00 1,2 -0,2 - 0,0
23.01.2021 06:00:00 1,3 0,0 - 0,0
23.01.2021 05:00:00 1,6 0,3 - 0,0
23.01.2021 04:00:00 1,8 0,5 - 0,0
23.01.2021 03:00:00 2,2 0,8 - 0,0
23.01.2021 02:00:00 2,1 1,0 - 0,0
23.01.2021 01:00:00 2,9 1,2 - 0,0
23.01.2021 00:00:00 3,7 2,2 - 0,0
22.01.2021 23:00:00 3,0 2,3 - 0,0
22.01.2021 22:00:00 3,0 2,3 - 0,0
22.01.2021 21:00:00 2,8 1,7 - 0,2
22.01.2021 20:00:00 3,7 2,2 - 0,0
22.01.2021 19:00:00 0,6 -0,7 - 0,0
22.01.2021 18:00:00 2,4 -0,4 - 0,0
22.01.2021 17:00:00 4,0 0,0 - 0,0
22.01.2021 16:00:00 5,1 -0,2 - 0,0
22.01.2021 15:00:00 7,2 0,2 - 0,0
22.01.2021 14:00:00 7,6 0,7 - 0,0
22.01.2021 13:00:00 7,9 2,0 - 0,0
22.01.2021 12:00:00 6,8 2,0 - 0,0
22.01.2021 11:00:00 5,3 1,7 - 0,0
22.01.2021 10:00:00 3,8 1,3 - 0,2
22.01.2021 09:00:00 1,0 0,5 6,7 0,0
22.01.2021 08:00:00 0,3 -0,6 - 0,0
22.01.2021 07:00:00 0,9 0,0 - 0,0
22.01.2021 06:00:00 0,6 -0,3 - 0,0
22.01.2021 05:00:00 0,8 -0,2 - 0,0
22.01.2021 04:00:00 1,4 0,2 - 0,0
22.01.2021 03:00:00 1,6 0,5 - 0,0
22.01.2021 02:00:00 2,0 0,7 - 0,0
22.01.2021 01:00:00 2,2 0,8 - 0,0
22.01.2021 00:00:00 2,8 1,4 - 0,0
21.01.2021 23:00:00 3,4 1,3 - 0,0
21.01.2021 22:00:00 4,7 2,3 - 0,0
21.01.2021 21:00:00 4,8 2,5 - 0,0
21.01.2021 20:00:00 5,2 3,2 - 0,0
21.01.2021 19:00:00 5,8 3,4 - 0,0
21.01.2021 18:00:00 6,2 2,8 - 0,0
21.01.2021 17:00:00 6,3 2,1 - 0,0
21.01.2021 16:00:00 7,3 1,6 - 0,0
21.01.2021 15:00:00 7,8 2,2 - 0,0
21.01.2021 14:00:00 8,3 1,6 - 0,0
21.01.2021 13:00:00 7,8 1,6 - 0,0
21.01.2021 12:00:00 8,9 2,5 - 0,0
21.01.2021 11:00:00 8,2 2,3 - 0,0
21.01.2021 10:00:00 7,5 2,3 - 0,0
21.01.2021 09:00:00 5,9 1,7 6,7 0,0
21.01.2021 08:00:00 4,8 1,4 - 0,0
21.01.2021 07:00:00 4,3 1,4 - 0,0
21.01.2021 06:00:00 4,1 1,2 - 0,0
21.01.2021 05:00:00 3,6 0,6 - 0,0
21.01.2021 04:00:00 3,8 0,5 - 0,0
21.01.2021 03:00:00 4,6 1,4 - 0,0
21.01.2021 02:00:00 4,7 3,3 - 0,4
21.01.2021 01:00:00 6,4 4,2 - 0,8
21.01.2021 00:00:00 9,5 8,5 - 0,6
20.01.2021 23:00:00 8,4 7,4 - 0,2
20.01.2021 22:00:00 9,4 6,5 - 0,0
20.01.2021 21:00:00 9,4 6,7 - 0,2
20.01.2021 20:00:00 9,3 6,5 - 0,0
20.01.2021 19:00:00 9,4 7,2 - 0,4
20.01.2021 18:00:00 8,9 7,4 - 0,2
20.01.2021 17:00:00 9,0 7,0 - 0,0
20.01.2021 16:00:00 9,4 7,0 - 0,0
20.01.2021 15:00:00 9,8 7,1 - 0,0
20.01.2021 14:00:00 9,6 7,9 - 0,0
20.01.2021 13:00:00 9,3 7,6 - 0,0
20.01.2021 12:00:00 10,1 8,0 - 0,0
20.01.2021 11:00:00 9,9 8,5 - 0,2
20.01.2021 10:00:00 9,8 8,1 - 0,2
20.01.2021 09:00:00 9,7 8,2 6,5 0,0
20.01.2021 08:00:00 10,2 8,3 - 0,0
20.01.2021 07:00:00 10,2 8,3 - 0,0
20.01.2021 06:00:00 10,2 8,4 - 0,0
20.01.2021 05:00:00 9,9 8,7 - 0,2
20.01.2021 04:00:00 10,2 8,5 - 0,0
20.01.2021 03:00:00 10,3 8,3 - 0,0
20.01.2021 02:00:00 10,4 8,5 - 0,0
20.01.2021 01:00:00 10,6 8,4 - 0,0
20.01.2021 00:00:00 10,5 8,3 - 0,0
19.01.2021 23:00:00 10,3 8,1 - 0,0
19.01.2021 22:00:00 10,0 7,7 - 0,0
19.01.2021 21:00:00 10,0 7,5 - 0,0
19.01.2021 20:00:00 10,1 7,5 - 0,0
19.01.2021 19:00:00 10,2 7,4 - 0,0
19.01.2021 18:00:00 9,9 7,6 - 0,0
19.01.2021 17:00:00 9,9 7,2 - 0,0
19.01.2021 16:00:00 10,4 6,9 - 0,0
19.01.2021 15:00:00 10,6 7,2 - 0,0
19.01.2021 14:00:00 10,9 7,2 - 0,0
19.01.2021 13:00:00 11,2 7,5 - 0,0
19.01.2021 12:00:00 11,8 8,8 - 0,0
19.01.2021 11:00:00 12,1 8,8 - 0,0
19.01.2021 10:00:00 11,6 9,1 - 0,0
19.01.2021 09:00:00 11,2 9,1 5,9 0,0
19.01.2021 08:00:00 10,9 9,3 - 0,0
19.01.2021 07:00:00 10,7 9,7 - 0,0
19.01.2021 06:00:00 10,6 9,6 - 0,2
19.01.2021 05:00:00 10,1 9,4 - 0,6
19.01.2021 04:00:00 9,4 8,5 - 0,6
19.01.2021 03:00:00 9,2 8,3 - 1,2
19.01.2021 02:00:00 9,2 8,0 - 0,0
19.01.2021 01:00:00 8,8 7,6 - 0,0
19.01.2021 00:00:00 8,5 6,9 - 0,0
18.01.2021 23:00:00 7,7 6,5 - 0,0
18.01.2021 22:00:00 8,1 6,0 - 0,0
18.01.2021 21:00:00 7,6 5,7 - 0,0
18.01.2021 20:00:00 7,0 5,0 - 0,0
18.01.2021 19:00:00 6,5 4,4 - 0,0
18.01.2021 18:00:00 6,1 3,8 - 0,0
18.01.2021 17:00:00 5,9 3,2 - 0,0
18.01.2021 16:00:00 6,2 3,4 - 0,0
18.01.2021 15:00:00 6,4 3,5 - 0,0

tt = Température de l'air
td = dewpoint
tt -20cm = Température de l'air -20cm
rr = Quantités de précipitations

stations d'obs. à proximité